Regional Weather Roundup
Issued by NWS

Home | Current Version | Previous Version | Graphics & Text | Print | Product List | Glossary On
Versions: 1 2 3 4 5 6 7 8 9 10 11 12 13 14 15 16 17 18 19 20 21 22 23 24 25 26 27 28 29 30 31 32 33 34 35 36 37 38 39 40 41 42 43 44 45 46 47 48 49 50
665
ASUS45 KTFX 221910
RWRMT
MONTANA REGIONAL WEATHER ROUNDUP
NATIONAL WEATHER SERVICE GREAT FALLS MT
100 PM MDT WED MAR 22 2017

NOTE: "FAIR" INDICATES FEW OR NO CLOUDS BELOW 12000 FEET WITH NO
SIGNIFICANT WEATHER AND/OR OBSTRUCTIONS TO VISIBILITY.

MTZ001>007-043-222000-
WEST OF THE DIVIDE

CITY           SKY/WX    TMP DP  RH WIND       PRES   REMARKS
KALISPELL      MOSUNNY   47  42  83 S12       29.86S
MISSOULA       CLOUDY    49  39  68 CALM      29.89S
BUTTE          CLOUDY    48  26  42 W5        29.88F
MULLAN PASS    CLOUDY    36  36 100 VRB6      29.86S FOG     WCI  31
ANACONDA         N/A     50  25  37 S6        29.87S
DEER LODGE       N/A     52  30  43 CALM      29.89F
EUREKA           N/A     48  36  61 SE13G18   29.84S
HAMILTON         N/A     54  27  35 S9        29.86F
PLAINS           N/A     51  39  63 CALM      29.89S
RONAN            N/A     54  37  52 S8        29.91F
THOMPSON FALLS   N/A     46  45  97 CALM      29.92F
$$

MTZ008-052>055-222000-
SOUTHWEST MONTANA

CITY           SKY/WX    TMP DP  RH WIND       PRES   REMARKS
BOZEMAN        SUNNY     55  40  56 NW9       29.84F
DILLON         CLOUDY    50  35  56 VRB6      29.86F
W YELLOWSTONE  CLOUDY    41  32  70 SW13G24   29.94F
ENNIS          MOSUNNY   54  30  40 S20G30    29.90F
THREE FORKS      N/A     57  48  72 W12       29.85S
TWIN BRIDGES     N/A     51  34  52 S3        29.88F
$$

MTZ009-010-012-014-046-048-049-054-222000-
EAST SLOPES AND CENTRAL MONTANA

CITY           SKY/WX    TMP DP  RH WIND       PRES   REMARKS
CUT BANK       SUNNY     54  28  36 W35G45    29.72F
GREAT FALLS    SUNNY     60  25  26 W24G33    29.76S
MALMSTROM AFB  SUNNY     59  27  28 W16G28    29.77F
HELENA         SUNNY     58  26  29 W17       29.82S
AUGUSTA          N/A     55  26  33 W25G37    29.77S
BOWMANS CRNR     N/A     55  24  30 W22G30    29.77S
CHOTEAU          N/A     57  25  28 SW22G30   29.75F
CONRAD           N/A     58  29  33 S3        29.78F
FAIRFIELD        N/A     56  25  29 W29G38    29.75S
POWER            N/A     57  26  30 W23G31    29.75S
RAYNESFORD       N/A     58  25  28 W17G30    29.78S
$$

MTZ011-013-016-021-045-047-050-051-222000-
NORTH CENTRAL MONTANA

CITY           SKY/WX    TMP DP  RH WIND       PRES   REMARKS
HAVRE          SUNNY     61  34  36 W20       29.72F
LEWISTOWN      SUNNY     61  21  21 W17G23    29.77F
N BAR RANCH      N/A     63  14  15 W9G21     29.79F
CHINOOK          N/A     61  36  39 W17G26    29.72F
DENTON           N/A     59  25  26 W22G30    29.74S
FORT BENTON      N/A     63  25  23 MISG      29.76F
GEYSER           N/A     57  26  29 W16G29    29.77F
GRASS RANGE      N/A     61  26  26 W20G28    29.72F
STANFORD         N/A     58  20  22 NW9G17    29.78S
WINIFRED         N/A     60  25  26 W17G25    29.76F
$$

MTZ017>020-022>027-061-062-222000-
NORTHEAST MONTANA

CITY           SKY/WX    TMP DP  RH WIND       PRES   REMARKS
GLASGOW        SUNNY     48  35  60 S7        29.77F
JORDAN           N/A     52  38  58 S5        29.77F
SIDNEY         MOSUNNY  N/A N/A N/A S12       29.83F
WOLF POINT     SUNNY     50  35  56 VRB3      29.79F
MALTA          SUNNY     54  37  54 CALM      29.75S
PLENTYWOOD       N/A     37  28  70 SE13      29.82F WCI  29
POPLAR           N/A     48  34  57 SE3       29.81F
SCOBEY           N/A     40  27  60 SE2       29.78F
$$

MTZ028>42-056>058-222000-
SOUTHCENTRAL AND SOUTHEAST MONTANA

CITY           SKY/WX    TMP DP  RH WIND       PRES   REMARKS
BAKER          MOSUNNY   45  33  63 S12       29.82F
BILLINGS       MOSUNNY   55  39  54 CALM      29.81F
LIVINGSTON     SUNNY     62  30  29 SW18G24   29.79F
MILES CITY     CLOUDY    49  36  61 S8        29.81F
BIG TIMBER     SUNNY     61  34  36 W17G24    29.82F
FORSYTH          N/A     52  39  62 NW7       29.80S
HARLOWTON        N/A     58  33  37 W20G30    29.79F
LAUREL           N/A     57  37  47 W2        29.81F
$$

REGIONAL REPORTS...DAKOTAS

CITY           SKY/WX    TMP DP  RH WIND       PRES   REMARKS
WILLISTON      CLOUDY    44  30  57 SE12      29.86F
MINOT          CLOUDY    36  26  67 SE21G30   29.95F WCI  25
DICKINSON      SUNNY     46  31  55 S21G30    29.82F
BEACH            N/A    N/A N/A N/A MISG        N/A
TIOGA          CLOUDY    34  32  93 S17       29.90S WCI  23
WATFORD CITY     N/A     41  32  70 S10G18    29.87R
BISMARCK       CLOUDY    45  28  51 S23G33    29.99F
GRAND FORKS    CLOUDY    31   7  36 S24       30.29F WCI  17
FARGO          CLOUDY    31  13  47 S22G31    30.31F WCI  18
BUFFALO SD       N/A     51  38  60 S12       29.77F
RAPID CITY     CLOUDY    58  38  47 SE16      29.79F
$$

REGIONAL REPORTS...WYOMING/IDAHO/WASHINGTON

CITY           SKY/WX    TMP DP  RH WIND       PRES   REMARKS
GILLETTE       SUNNY     65  37  35 NW14      29.82R
SHERIDAN       MOSUNNY   52  40  63 SW6       29.84F
BUFFALO WY     CLOUDY    50  38  63 NW7       29.87R
CODY           CLOUDY    61  28  28 W8        29.84F
YELLOWSTONE LA   N/A     40  29  64 VRB3      29.97S
IDAHO FALLS    CLOUDY    49  41  74 SW16      29.95S
SALMON         MOSUNNY   50  34  53 CALM      29.87F
BOISE          PTSUNNY   56  37  49 S8        29.90S
SPOKANE        PTSUNNY   49  42  77 SE9       29.86S
$$

REGIONAL REPORTS...ALBERTA

CITY           SKY/WX    TMP DP  RH WIND       PRES   REMARKS
EDMONTON       LGT SNOW  30  25  80 NW5       29.61F
CALGARY        MOSUNNY   55  25  30 W17G24    29.60R
LETHBRIDGE     MOSUNNY   59  27  29 W37G45    29.65F
MEDICINE HAT   MOSUNNY   61  27  27 SW29G38   29.62S
WATERTON GATE    N/A     46  32  57 SW38G52     N/A
MILK RIVER       N/A     59  27  29 W23G31      N/A
ONEFOUR          N/A     59  27  29 W21G29      N/A
$$

REGIONAL REPORTS...SASKATCHEWAN

CITY           SKY/WX    TMP DP  RH WIND       PRES   REMARKS
SWIFT CURRENT  SUNNY     54  36  50 SW20      29.63F
REGINA         CLOUDY    34  25  69 SE21G29   29.82F WCI  22
SASKATOON      CLOUDY    30  27  86 SE17      29.72F WCI  18
CYPRESS HILLS    N/A     45  34  65 SW15G23     N/A
ROCKGLEN         N/A     39  34  81 S16         N/A  WCI  30
$$




USA.gov is the U.S. government's official web portal to all federal, state and local government web resources and services.